Location: Boiro
(42.6475°N, 8.8834°W)
Time: 07:24:13
(UTC+01:00)

Vanguard 1 - Pass Details

Date: 07 December 2021
Orbit: 652 x 3830 km, 34.2° (Epoch: 21 January)

Event Time Altitude Azimuth Distance (km) Brightness Sun altitude
Rises 07:18:21 0° 284° (WNW) 7,902 - -16.6°
Reaches altitude 10° 07:25:05 10° 276° (W) 6,646 - -15.5°
Exits shadow 07:27:51 14° 271° (W) 6,129 13.5 -15.0°
Maximum altitude 07:40:48 29° 226° (SW) 4,183 13.0 -12.7°
Drops below altitude 10° 07:51:31 10° 172° (S) 4,460 13.8 -10.9°
Sets 07:54:59 0° 161° (SSE) 5,042 14.4 -10.3°
